Location: Shenandoah County Park
(38.9356°N, 78.4524°W)
Time: 06:15:31
(UTC-04:00)

Transit 2A - Pass Details

Date: 20 June 2024
Orbit: 591 x 960 km, 66.7° (Epoch: 23 July)

Event Time Altitude Azimuth Distance (km) Brightness Sun altitude
Rises 01:05:23 0° 337° (NNW) 3,529 10.5 -27.6°
Reaches altitude 10° 01:08:01 10° 345° (NNW) 2,625 9.7 -27.6°
Maximum altitude 01:13:50 41° 54° (NE) 1,347 7.4 -27.6°
Enters shadow 01:16:27 29° 102° (ESE) 1,695 7.6 -27.6°
